Flag for Denmark Weather past 2 weeks in Hirtshals, Denmark

Now
55 °F

Passing clouds.


Feels Like: 53 °F
Forecast: 53 / 60 °F
Wind: 10 mph from Southeast

Location: Aalborg

Current Time: Oct 1, 2014 at 2:58:30 AM

Latest Report: Oct 1, 2014 at 2:00 AM


Visibility: 6 mi

Pressure: 30.28 "Hg

Humidity: 91%

Dew point: 53 °F

Location of HirtshalsLocation

Historic Weather in Hirtshals — Graph

°F

Hirtshals temperature yesterday

Maximum temperature yesterday: 61 °F (at 3:00 PM)
Minimum temperature yesterday: 49 °F (at 6:00 AM)
Average temperature yesterday: 54 °F

Past Weeks' High & Low Weather Summary

 TemperatureHumidityPressure
High70 °F (Sep 19, 3:00 PM)97% (Sep 19, 8:00 AM)30.30 "Hg (Sep 19, 8:00 AM)
Low38 °F (Sep 23, 7:00 AM)51% (Sep 19, 3:00 PM)29.63 "Hg (Sep 25, 4:00 AM)
Average57 °F82%30.02 "Hg
* Reported Sep 16 1:00 AM — Oct 1 1:00 AM, Hirtshals, Weather by CustomWeather, © 2014

Note: Actual official high and low records may vary slightly from our data, if they occured in-between our weather recording intervals... More about our weather records

Advertising

Hirtshals weather history for previous 24 hours

 ConditionsComfort  
Time TempWeatherWind HumidityBarometerVisibility
1:00 AM
Oct 1
55 °FCool.9 mph91%30.28 "HgN/A
12:00 AM53 °FCool.8 mph91%30.29 "HgN/A
11:00 PM
Sep 30
52 °FPassing clouds.6 mph93%30.29 "Hg6 mi
10:00 PM54 °FCool.7 mph89%30.29 "HgN/A
9:00 PM53 °FCool.7 mph87%30.29 "HgN/A
8:00 PM52 °FPassing clouds.8 mph89%30.28 "Hg9 mi
7:00 PM54 °FCool.7 mph87%30.28 "HgN/A
6:00 PM58 °FCool.13 mph77%30.28 "HgN/A
5:00 PM60 °FPartly sunny.13 mph64%30.27 "Hg11 mi
4:00 PM61 °FCool.13 mph64%30.27 "HgN/A
3:00 PM61 °FCool.14 mph66%30.27 "HgN/A
2:00 PM60 °FPartly sunny.10 mph69%30.27 "Hg11 mi
1:00 PM61 °FCool.13 mph69%30.27 "HgN/A
12:00 PM59 °FCool.13 mph76%30.27 "HgN/A
11:00 AM56 °FPartly sunny.7 mph86%30.27 "Hg12 mi
10:00 AM55 °FCool.5 mph88%30.26 "HgN/A
9:00 AM52 °FCool.6 mph92%30.24 "HgN/A
8:00 AM51 °FOvercast.9 mph94%30.24 "Hg12 mi
7:00 AM49 °FCool.6 mph95%30.23 "HgN/A
6:00 AM49 °FCool.5 mph95%30.23 "HgN/A
5:00 AM50 °FPassing clouds.5 mph95%30.22 "Hg12 mi
4:00 AM51 °FCool.7 mph97%30.22 "HgN/A
3:00 AM51 °FCool.6 mph97%30.22 "HgN/A
2:00 AM52 °FFog.5 mph97%30.22 "Hg9 mi
Weather by CustomWeather, © 2014

See weather overviewHow to use our weather pages